Regional Weather Roundup
Issued by NWS

Home | Current Version | Previous Version | Text Only | Print | Product List | Glossary On
Versions: 1 2 3 4 5 6 7 8 9 10 11 12 13 14 15 16 17 18 19 20 21 22 23 24 25 26 27
000
ASUS46 KSEW 250010
RWRWA

WASHINGTON REGIONAL WEATHER ROUNDUP
NATIONAL WEATHER SERVICE SEATTLE WA
500 PM PDT SAT SEP 24 2016

NOTE:"FAIR" INDICATES FEW OR NO CLOUDS BELOW 12,000 FEET WITH NO
SIGNIFICANT WEATHER AND/OR OBSTRUCTIONS TO VISIBILITY.

WAZ505-507>509-250100-
SEATTLE, TACOMA, EVERETT, AND VICINITY

CITY           SKY/WX    TMP DP  RH WIND       PRES   REMARKS
EVERETT        PTSUNNY   61  48  62 W3        30.35R
6HR MIN TEMP:  57; 6HR MAX TEMP:  63;

BOEING FIELD   PTSUNNY   65  45  48 W6        30.34R
6HR MIN TEMP:  60; 6HR MAX TEMP:  67;

RENTON         MOSUNNY   65  47  52 W5        30.33S
6HR MIN TEMP:  60; 6HR MAX TEMP:  67;

SEATAC AIRPORT PTSUNNY   64  46  52 W5        30.35S
6HR MIN TEMP:  59; 6HR MAX TEMP:  66;

JBLM-MCCHORD   PTSUNNY   65  50  59 N7        30.33S
6HR MIN TEMP:  59; 6HR MAX TEMP:  67;

PUYALLUP       FAIR      66  48  52 CALM      30.34S
BREMERTON      PTSUNNY   63  50  63 S7        30.38S
6HR MIN TEMP:  57; 6HR MAX TEMP:  64;

JBLM-FT LEWIS  PTSUNNY   65  51  59 W7        30.33R
6HR MIN TEMP:  59; 6HR MAX TEMP:  67; 6HR PCP: TRACE;

TACOMA NARROWS PTSUNNY   62  46  55 CALM      30.35S
6HR MIN TEMP:  58; 6HR MAX TEMP:  65;

$$

WAZ001-503-506-510-514-515-250100-
NORTH INTERIOR

CITY           SKY/WX    TMP DP  RH WIND       PRES   REMARKS
BELLINGHAM     CLOUDY    64  48  56 NW5       30.34F
6HR MIN TEMP:  57; 6HR MAX TEMP:  65;

FRIDAY HARBOR  CLOUDY    65  46  50 CALM      30.35S
6HR MIN TEMP:  59; 6HR MAX TEMP:  67;

EASTSOUND      MOSUNNY   57  50  77 N3        30.34S
PORT ANGELES   CLOUDY    55  49  80 CALM      30.35F
6HR MIN TEMP:  55; 6HR MAX TEMP:  60; 6HR PCP: TRACE;

EDIZ HOOK      LGT RAIN  53  49  85 CALM      30.35S
6HR MIN TEMP:  53; 6HR MAX TEMP:  57;

PORT TOWNSEND  CLOUDY    63  50  63 CALM      30.33F
NAS WHIDBEY    PTSUNNY   62  46  55 N9        30.38R
6HR MIN TEMP:  61; 6HR MAX TEMP:  66;

ARLINGTON      PTSUNNY   64  45  48 NW6       30.35R
6HR MIN TEMP:  59; 6HR MAX TEMP:  68;

BURLINGTON     MOSUNNY   63  50  63 NW7       30.34S
$$

WAZ020-022-039-040-504-511-512-250100-
SOUTHWEST INTERIOR

CITY           SKY/WX    TMP DP  RH WIND       PRES   REMARKS
SHELTON        CLOUDY    65  48  54 S3        30.32S
6HR MIN TEMP:  59; 6HR MAX TEMP:  66; 6HR PCP: TRACE;

OLYMPIA        PTSUNNY   65  47  52 CALM      30.33F
6HR MIN TEMP:  57; 6HR MAX TEMP:  66;

CHEHALIS       PTSUNNY   68  50  52 CALM      30.34S
KELSO          SUNNY     68  48  48 VRB3      30.33S
6HR MIN TEMP:  55; 6HR MAX TEMP:  68;

VANCOUVER      SUNNY     68  41  37 SW3       30.31F
6HR MIN TEMP:  55; 6HR MAX TEMP:  68;

SCAPPOOSE, OR  SUNNY     68  47  46 CALM      30.31F
6HR MIN TEMP:  57; 6HR MAX TEMP:  69;

PORTLAND, OR   MOSUNNY   69  39  33 W5        30.31F
6HR MIN TEMP:  54; 6HR MAX TEMP:  69;

$$

WAZ021-516-517-250100-
WASHINGTON COAST

CITY           SKY/WX    TMP DP  RH WIND       PRES   REMARKS
FORKS          CLOUDY    59  50  72 SW6       30.33F
6HR MIN TEMP:  57; 6HR MAX TEMP:  61; 6HR PCP: TRACE;

HOQUIAM        CLOUDY    63  57  81 SW10      30.32F
6HR MIN TEMP:  57; 6HR MAX TEMP:  67;

ASTORIA, OR    SUNNY     69  52  54 NE9       30.31F
6HR MIN TEMP:  62; 6HR MAX TEMP:  70;

$$

WAZ019-023-024-040-518-519-250100-
CASCADE MOUNTAINS AND COLUMBIA GORGE

CITY           SKY/WX    TMP DP  RH WIND       PRES   REMARKS
STAMPEDE PASS  MOSUNNY   53  43  68 VRB5      30.35S
6HR MIN TEMP:  44; 6HR MAX TEMP:  55;

TROUTDALE, OR  SUNNY     68  47  46 SW6       30.31F
6HR MIN TEMP:  57; 6HR MAX TEMP:  70;

THE DALLES, OR SUNNY     75  31  19 N3        30.27S
6HR MIN TEMP:  64; 6HR MAX TEMP:  76;

$$

WAZ026-027-041>044-520-521-250100-
EAST SLOPES

CITY           SKY/WX    TMP DP  RH WIND       PRES   REMARKS
OMAK           PTSUNNY   70  34  26 SE6       30.25F
6HR MIN TEMP:  58; 6HR MAX TEMP:  71;

WENATCHEE      PTSUNNY   71  38  29 E6        30.25F
6HR MIN TEMP:  64; 6HR MAX TEMP:  72;

ELLENSBURG     SUNNY     72  34  24 S7        30.28S
6HR MIN TEMP:  65; 6HR MAX TEMP:  73; 6HR PCP: TRACE;

YAKIMA         SUNNY     72  36  26 SE5       30.28S
6HR MIN TEMP:  65; 6HR MAX TEMP:  74;

$$

WAZ028-034-035-250100-
COLUMBIA BASIN

CITY           SKY/WX    TMP DP  RH WIND       PRES   REMARKS
EPHRATA        MOSUNNY   69  37  30 S9        30.26F
6HR MIN TEMP:  60; 6HR MAX TEMP:  71;

MOSES LAKE     MOSUNNY   70  37  29 S8        30.28F
6HR MIN TEMP:  60; 6HR MAX TEMP:  72;

PASCO          SUNNY     73  37  27 S6        30.29S
6HR MIN TEMP:  66; 6HR MAX TEMP:  74;

HERMISTON, OR  SUNNY     71  38  29 NW6       30.28S
6HR MIN TEMP:  64; 6HR MAX TEMP:  73;

$$

WAZ036>038-250100-
NORTHEAST WASHINGTON

CITY           SKY/WX    TMP DP  RH WIND       PRES   REMARKS
SPOKANE GEIGER PTSUNNY   65  32  29 W8        30.29S
6HR MIN TEMP:  55; 6HR MAX TEMP:  66;

SPOKANE FELTS  MOSUNNY   68  34  28 SW10G17   30.28F
6HR MIN TEMP:  57; 6HR MAX TEMP:  68;

FAIRCHILD AFB  CLOUDY    65  34  31 W10       30.29S
6HR MIN TEMP:  55; 6HR MAX TEMP:  67;

COEURDALENE,ID NOT AVBL
DEER PARK      SUNNY     67  29  24 SW10      30.28F
6HR MIN TEMP:  47; 6HR MAX TEMP:  67;

$$

WAZ029>033-250100-
SOUTHEAST WASHINGTON

CITY           SKY/WX    TMP DP  RH WIND       PRES   REMARKS
PULLMAN        SUNNY     63  36  36 W7        30.32F
6HR MIN TEMP:  57; 6HR MAX TEMP:  64;

LEWISTON, ID   SUNNY     70  37  29 NW5       30.29F
6HR MIN TEMP:  63; 6HR MAX TEMP:  72;

WALLA WALLA    SUNNY     68  37  32 SW5       30.29F
6HR MIN TEMP:  61; 6HR MAX TEMP:  69;

PENDLETON, OR  SUNNY     68  36  30 W5        30.29F
6HR MIN TEMP:  60; 6HR MAX TEMP:  69;

$$




USA.gov is the U.S. government's official web portal to all federal, state and local government web resources and services.